McGuire AFB, NJ

8:39 AM EDT on September 25, 2017 (GMT -0400)
McGuire Air Force Base

Weather History for KWRI - July, 2013

Change the Weather History Date:

Tuesday, July 16, 2013

  Actual Average Record
Temperature  
Mean Temperature 84 °F -  
Max Temperature 92 °F 84 °F 96 °F (1997)
Min Temperature 75 °F 63 °F 60 °F (2000)
Cooling Degree Days 18    
Growing Degree Days 34 (Base 50)    
Moisture  
Dew Point 70 °F    
Average Humidity 69    
Maximum Humidity 84    
Minimum Humidity 46    
Precipitation  
Precipitation 0.00 in - - ()
Sea Level Pressure  
Sea Level Pressure 30.16 in    
Wind  
Wind Speed 6 mph (North)    
Max Wind Speed 12 mph    
Max Gust Speed -    
Visibility 10 miles    
Events Rain    
Averages and records for this station are not official NWS values.
T = Trace of Precipitation, MM = Missing Value Source: NWS Daily Summary

Daily Weather History Graph

Daily Weather History Graph

Search for Another Location

Airport or City:

Trip Planner

Search our weather history database for the weather conditions in past years. The results will help you decide how hot, cold, wet, or windy it might be!

Date:

Astronomy

Jul. 16, 2013 Rise Set
Actual Time 5:43 AM EDT 8:25 PM EDT
Civil Twilight 5:11 AM EDT 8:57 PM EDT
Nautical Twilight 4:31 AM EDT 9:36 PM EDT
Astronomical Twilight 3:46 AM EDT 10:21 PM EDT
Moon 2:04 PM EDT (7/16) 12:11 AM EDT (7/16)
Length of Visible Light 15h 45m
Length of Day
14h 42m
First Quarter, 56% of the Moon is Illuminated
Jul 16
First Quarter
Jul 22
Full
Jul 29
Last Quarter
Aug 6
New
Aug 14
First Quarter

Hourly Weather History & Observations

Time (EDT) Temp. Heat Index Dew Point Humidity Pressure Visibility Wind Dir Wind Speed Gust Speed Precip Events Conditions
12:58 AM 80.8 °F 85.9 °F 74.1 °F 80% 30.16 in 10.0 mi NW 4.6 mph - N/A   Clear
1:58 AM 79.5 °F - 73.4 °F 81% 30.15 in 10.0 mi NNW 5.8 mph - N/A   Clear
2:58 AM 78.6 °F - 72.1 °F 80% 30.15 in 10.0 mi North 5.8 mph - N/A   Clear
3:58 AM 75.9 °F - 70.5 °F 83% 30.15 in 10.0 mi North 4.6 mph - N/A   Clear
4:58 AM 75.9 °F - 70.3 °F 83% 30.15 in 10.0 mi North 5.8 mph - N/A   Clear
5:48 AM 75.2 °F - 69.8 °F 83% 30.16 in 10.0 mi North 4.6 mph - N/A Rain Light Rain
5:56 AM 75.2 °F - 69.8 °F 83% 30.16 in 10.0 mi North 3.5 mph - N/A   Clear
5:58 AM 75.2 °F - 69.8 °F 83% 30.17 in 10.0 mi NNW 3.5 mph - 0.00 in   Clear
6:58 AM 77.2 °F - 70.0 °F 78% 30.19 in 10.0 mi North 5.8 mph - 0.00 in   Clear
6:59 AM 77.0 °F - 69.8 °F 78% 30.18 in 10.0 mi North 4.6 mph - N/A Rain Light Rain
7:10 AM 78.8 °F - 69.8 °F 74% 30.18 in 10.0 mi North 6.9 mph - N/A   Clear
7:44 AM 78.8 °F - 69.8 °F 74% 30.18 in 10.0 mi North 5.8 mph - N/A Rain Light Rain
7:50 AM 78.8 °F - 69.8 °F 74% 30.18 in 10.0 mi North 10.4 mph - N/A   Clear
7:58 AM 79.3 °F - 70.3 °F 74% 30.19 in 10.0 mi North 8.1 mph - 0.00 in   Clear
8:17 AM 80.6 °F 83.9 °F 69.8 °F 70% 30.18 in 10.0 mi North 6.9 mph - N/A Rain Light Rain
8:26 AM 80.6 °F 83.9 °F 69.8 °F 70% 30.18 in 10.0 mi North 8.1 mph - N/A   Clear
8:58 AM 82.2 °F 86.4 °F 70.7 °F 68% 30.19 in 10.0 mi North 10.4 mph - 0.00 in   Clear
9:58 AM 84.2 °F 88.4 °F 70.0 °F 62% 30.19 in 10.0 mi North 10.4 mph - N/A   Clear
10:58 AM 86.7 °F 91.4 °F 69.8 °F 57% 30.19 in 10.0 mi North 10.4 mph - N/A   Clear
11:58 AM 88.3 °F 93.2 °F 69.6 °F 54% 30.18 in 10.0 mi NNW 9.2 mph - N/A   Clear
12:58 PM 90.0 °F 95.0 °F 69.6 °F 51% 30.17 in 10.0 mi North 10.4 mph - N/A   Clear
1:58 PM 90.9 °F 94.8 °F 68.4 °F 47% 30.16 in 10.0 mi NNE 11.5 mph - N/A   Clear
2:58 PM 91.4 °F 95.8 °F 68.4 °F 47% 30.15 in 10.0 mi NNW 9.2 mph - N/A   Clear
3:55 PM 92.1 °F 96.7 °F 68.5 °F 46% 30.14 in 10.0 mi NNW 11.5 mph - N/A   Partly Cloudy
4:58 PM 91.6 °F 95.7 °F 68.2 °F 46% 30.13 in 10.0 mi NNW 8.1 mph - N/A   Clear
5:58 PM 90.7 °F 94.5 °F 67.6 °F 47% 30.12 in 10.0 mi NNW 5.8 mph - N/A   Clear
6:58 PM 88.9 °F 93.4 °F 69.4 °F 52% 30.13 in 10.0 mi North 5.8 mph - N/A   Clear
7:55 PM 86.0 °F 90.4 °F 69.8 °F 58% 30.13 in 10.0 mi NW 3.5 mph - N/A Rain Light Rain
7:58 PM 86.0 °F 90.4 °F 69.8 °F 58% 30.14 in 10.0 mi NW 4.6 mph - N/A Rain Light Rain
8:04 PM 87.8 °F 92.6 °F 69.8 °F 55% 30.13 in 10.0 mi NW 3.5 mph - N/A   Clear
8:58 PM 80.2 °F 84.5 °F 72.9 °F 78% 30.14 in 10.0 mi Calm Calm - 0.00 in   Clear
9:02 PM 80.6 °F 84.6 °F 71.6 °F 74% 30.13 in 10.0 mi Calm Calm - N/A Rain Light Rain
9:17 PM 80.6 °F 84.6 °F 71.6 °F 74% 30.14 in 10.0 mi NE 4.6 mph - N/A   Clear
9:23 PM 80.6 °F 84.6 °F 71.6 °F 74% 30.14 in 10.0 mi ENE 3.5 mph - N/A   Light Drizzle
9:38 PM 80.6 °F 84.6 °F 71.6 °F 74% 30.15 in 10.0 mi Calm Calm - N/A   Clear
9:58 PM 80.2 °F 84.2 °F 72.0 °F 76% 30.16 in 10.0 mi West 2.3 mph - 0.00 in   Clear
10:58 PM 77.4 °F - 72.1 °F 84% 30.17 in 10.0 mi SE 5.8 mph - N/A   Clear
11:58 PM 76.8 °F - 71.6 °F 84% 30.16 in 10.0 mi South 4.6 mph - N/A   Clear